Regional Weather Roundup
Issued by NWS

Home | Current Version | Previous Version | Graphics & Text | Print | Product List | Glossary On
Versions: 1 2 3 4 5 6 7 8 9 10 11 12 13 14 15 16 17 18 19 20 21 22 23 24 25 26 27 28 29 30 31 32 33 34 35 36 37 38 39 40 41 42 43 44 45 46 47 48 49 50
000
ASUS43 KDMX 190207
RWRIA

WEATHER ROUNDUP FOR IOWA
NATIONAL WEATHER SERVICE DES MOINES IA
900 PM CDT THU SEP 18 2014

NOTE: "FAIR" INDICATES FEW OR NO CLOUDS BELOW 12,000 FEET WITH NO
SIGNIFICANT WEATHER AND/OR OBSTRUCTIONS TO VISIBILITY.

* - THESE STATIONS ARE NOT NWS STATIONS...THUS NOT UNDER NWS
QUALITY CONTROL.  THEY ALSO DO NOT REPORT WEATHER SUCH
AS PRECIPITATION OR FOG.

IAZ001>003-012>014-020>022-031>034-043>046-190300-
   NORTHWEST IOWA

CITY           SKY/WX    TMP DP  RH WIND       PRES   REMARKS
CARROLL *      CLEAR     57  54  88 SE8       30.01R
CHEROKEE *     CLEAR     61  57  88 SE7       29.99R
DENISON *      CLEAR     61  54  77 SE7       29.98S
LE MARS *        N/A     64  57  77 SE8       29.96R
ORANGE CITY *  CLEAR     64  54  68 SE7       29.96S
SHELDON *      CLEAR     63  57  82 SE10      29.96R
SIOUX CITY     CLEAR     65  57  75 SE9       29.95R
SPENCER        MOCLDY    61  53  75 SE9       29.99R
STORM LAKE *   CLEAR     59  57  94 SE9       30.01R
$$

IAZ055>058-069>071-079>083-090>094-190300-
   SOUTHWEST IOWA

CITY           SKY/WX    TMP DP  RH WIND       PRES   REMARKS
ATLANTIC *     CLEAR     63  57  82 SE6       30.01R
AUDUBON *      CLEAR     57  50  77 CALM      30.02S
CLARINDA *       N/A     61  59  94 E5        30.02S
COUNCIL BLFS * CLEAR     63  59  88 SE8       29.97S
CRESTON *      CLEAR     57  55  94 SE7       30.04R
HARLAN  *      CLEAR     61  54  77 SE5       30.04R
LAMONI         CLEAR     61  57  87 E3        30.04R
SHENANDOAH *     N/A     63  59  88 SE7G13    30.00R
$$

IAZ047>049-059>061-072>074-084-190300-
   CENTRAL IOWA

CITY           SKY/WX    TMP DP  RH WIND       PRES   REMARKS
AMES           CLEAR     57  52  83 SE3       30.05R
ANKENY *       CLEAR     57  54  88 CALM      30.04R
CHARITON *     PTCLDY    59  57  94 CALM      30.05R
DES MOINES     CLEAR     64  54  69 SE8       30.04R
GRINNELL*      CLEAR     59  54  82 SE3       30.06R
KNOXVILLE *    CLEAR     63  55  77 SE5       30.04R
MARSHALLTOWN   CLEAR     56  52  86 SE5       30.05R
PELLA *        CLEAR     61  54  77 CALM      30.06R
PERRY *          N/A     57  54  88 SE6       30.04R
$$

IAZ004>006-015-016-023>025-035-036-190300-
   NORTH CENTRAL IOWA

CITY           SKY/WX    TMP DP  RH WIND       PRES   REMARKS
ALGONA *       CLEAR     63  50  63 S9        30.02R
CLARION *        N/A     59  54  82 SE7       30.04R
ESTHERVILLE    CLEAR     61  48  62 S13       29.99R
FORT DODGE *   CLEAR     63  50  63 SE6       30.03F
MASON CITY     CLEAR     59  53  80 SE8       30.05R
FOREST CITY *  CLEAR     55  54  94 SE6       30.04R
IOWA FALLS *     N/A     57  52  82 SE6       30.06R
$$

IAZ007>011-017>019-026>030-037>042-050>054-066-190300-
   NORTHEAST IOWA

CITY           SKY/WX    TMP DP  RH WIND       PRES   REMARKS
CEDAR RAPIDS   CLEAR     58  54  86 E8        30.06R
CHARLES CITY * CLEAR     59  54  82 SE7       30.07R
CLINTON *      CLEAR     55  50  82 E7        30.12R
DECORAH *      PTCLDY    59  54  82 SE6       30.07S
DUBUQUE        CLEAR     59  52  77 E8        30.11R
MONTICELLO *   CLEAR     59  54  82 E5        30.08R
OELWEIN *      CLEAR     57  54  88 SE7       30.08R
WATERLOO       CLEAR     62  53  72 SE7       30.06R
$$

IAZ064-065-067-068-078-190300-
   EAST CENTRAL IOWA

CITY           SKY/WX    TMP DP  RH WIND       PRES   REMARKS
DAVENPORT      CLEAR     59  50  72 E7        30.10R
IOWA CITY      CLEAR     62  53  72 SE7       30.08R
MT. PLEASANT * CLEAR     57  52  82 E6        30.07R
MUSCATINE *    CLEAR     64  54  68 E7        30.08R
QUAD CITIES    CLEAR     59  51  75 E8        30.08R
$$

IAZ062-063-075>077-085>089-095>099-190300-
   SOUTHEAST IOWA

CITY           SKY/WX    TMP DP  RH WIND       PRES   REMARKS
BURLINGTON     CLEAR     64  53  67 E6        30.07R
FAIRFIELD *    CLEAR     57  54  88 SE3       30.06R
FORT MADISON * CLEAR     63  55  77 E3        30.07S
KEOKUK *       CLEAR     61  55  82 E5        30.05R
OSKALOOSA *      N/A     61  54  77 SE6       30.05S
CENTERVILLE *  CLEAR     57  57 100 E6        30.06S
OTTUMWA        CLEAR     58  52  80 SE6       30.05R
WASHINGTON *   CLEAR     57  55  94 E5        30.07R
$$

ABBREVIATIONS USED IN REMARKS
   TC - TEMPERATURES IN CELSIUS
  WCI - WIND CHILL INDEX
   HX - HEAT INDEX
  VSB - VISIBILITY
$$




USA.gov is the U.S. government's official web portal to all federal, state and local government web resources and services.